1500951600.57,3966,19.94,73048.0,5.21,2.01,2.39,0,*4A
1500951601.77,3967,19.94,73050.8,5.19,1.97,2.27,0,*43
1500951602.98,3968,19.94,73046.0,5.19,1.89,2.25,0,*41
1500951604.18,3969,19.94,73048.5,5.19,1.89,2.27,0,*42
1500951605.39,3970,19.94,73046.0,5.21,1.93,2.31,0,*4D
1500951606.63,3971,19.94,73046.0,5.21,1.89,2.17,0,*43
1500951607.84,3972,19.94,73044.8,5.21,1.93,2.31,0,*4F
1500951609.06,3973,19.88,73046.0,5.19,1.89,2.13,0,*4E
1500951610.28,3974,19.94,73048.3,5.21,1.93,2.27,0,*4E
1500951611.5,3975,19.94,73048.8,5.19,1.85,2.25,0,*41
1500951612.72,3976,19.94,73046.5,5.19,1.89,2.13,0,*4B
1500951613.95,3977,19.94,73050.3,5.19,1.85,2.09,0,*4D
1500951615.19,3978,19.94,73054.0,5.21,1.89,2.17,0,*4A
1500951616.42,3979,19.94,73052.3,5.19,1.85,2.25,0,*4D
1500951617.66,3980,19.88,73044.5,5.21,1.89,2.17,0,*4D
1500951618.87,3981,19.88,73046.3,5.21,1.83,2.05,0,*45
1500951620.1,3982,19.88,73050.8,5.19,1.85,2.09,0,*47
1500951621.34,3983,19.88,73048.5,5.21,1.89,2.05,0,*4D
1500951622.54,3984,19.94,73050.0,5.19,1.75,2.01,0,*46
1500951623.73,3985,19.88,73050.0,5.19,1.79,2.01,0,*4B
1500951624.96,3986,19.94,73052.3,5.19,1.85,2.09,0,*43
1500951626.16,3987,19.88,73048.0,5.19,1.75,2.01,0,*45
1500951627.37,3988,19.88,73050.5,5.19,1.89,2.01,0,*49
1500951628.59,3989,19.88,73048.8,5.19,1.89,2.09,0,*40
1500951629.82,3990,19.88,73048.3,5.19,1.85,2.09,0,*44
1500951631.06,3991,19.88,73050.0,5.21,1.93,2.17,0,*46
1500951632.28,3992,19.94,73052.0,5.19,1.89,2.13,0,*41
1500951633.51,3993,19.88,73048.8,5.19,1.89,2.13,0,*40
1500951634.72,3994,19.94,73052.5,5.19,1.89,2.09,0,*4C
1500951635.94,3995,19.88,73054.5,5.19,1.89,2.01,0,*45
1500951637.18,3996,19.88,73054.5,5.21,1.89,2.01,0,*4D
1500951638.42,3997,19.88,73054.5,5.21,1.93,2.05,0,*43
1500951639.64,3998,19.94,73056.8,5.19,1.85,1.97,0,*48
1500951640.84,3999,19.94,73052.0,5.19,1.79,1.97,0,*4A
1500951642.05,4000,19.94,73054.0,5.21,1.83,2.01,0,*46
1500951643.24,4001,19.94,73048.5,5.19,1.79,1.89,0,*4A
1500951644.46,4002,19.94,73048.3,5.21,1.79,2.01,0,*41
1500951645.68,4003,19.94,73050.8,5.21,1.79,2.01,0,*40
1500951646.9,4004,19.88,73048.8,5.19,1.85,1.97,0,*43
1500951648.12,4005,19.88,73052.8,5.19,1.85,1.89,0,*4D
1500951649.36,4006,19.94,73052.8,5.21,1.93,2.01,0,*41
1500951650.58,4007,19.94,73052.0,5.19,1.85,1.97,0,*40
1500951651.79,4008,19.94,73056.0,5.21,1.83,1.93,0,*46
1500951653.0,4009,19.94,73052.5,5.21,1.89,1.83,0,*4C
1500951654.2,4010,19.88,73048.3,5.21,1.79,1.79,0,*4E
1500951655.37,4011,19.94,73054.0,5.19,1.79,1.75,0,*48
1500951656.57,4012,19.94,73058.0,5.19,1.79,1.67,0,*48
1500951657.78,4013,19.88,73056.0,5.21,1.89,1.83,0,*47
1500951658.98,4014,19.88,73050.8,5.19,1.79,1.67,0,*4E
1500951660.15,4015,19.88,73050.5,5.19,1.79,1.75,0,*4C
1500951661.36,4016,19.94,73050.8,5.21,1.83,1.89,0,*42
1500951662.56,4017,19.88,73050.8,5.19,1.85,1.79,0,*41
1500951663.78,4018,19.94,73048.8,5.21,1.93,1.83,0,*47
1500951665.0,4019,19.94,73054.8,5.19,1.89,1.85,0,*40
1500951666.17,4020,19.94,73054.5,5.19,1.79,1.79,0,*46
1500951667.38,4021,19.88,73052.0,5.21,1.83,1.71,0,*41
1500951668.59,4022,19.88,73050.5,5.19,1.85,1.75,0,*4B
1500951669.79,4023,19.88,73052.5,5.19,1.85,1.75,0,*4A
1500951671.0,4024,19.88,73052.8,5.21,1.93,1.79,0,*4D
1500951672.2,4025,19.94,73054.0,5.19,1.93,1.79,0,*47
1500951673.4,4026,19.88,73052.8,5.19,1.85,1.75,0,*4F
1500951674.62,4027,19.88,73054.0,5.21,1.89,1.79,0,*45
1500951675.81,4028,19.94,73056.5,5.19,1.89,1.79,0,*41
1500951677.05,4029,19.88,73052.3,5.21,1.93,1.71,0,*48
1500951678.25,4030,19.88,73054.3,5.19,1.97,1.79,0,*47
1500951679.45,4031,19.88,73058.3,5.19,1.97,1.79,0,*46
1500951680.67,4032,19.88,73056.8,5.21,2.01,1.79,0,*42
1500951681.87,4033,19.88,73056.5,5.19,2.01,1.75,0,*44
1500951683.06,4034,19.88,73056.3,5.19,2.01,1.75,0,*43
1500951684.28,4035,19.88,73054.0,5.21,2.05,1.83,0,*44
1500951685.5,4036,19.88,73058.3,5.21,2.05,1.79,0,*42
1500951686.72,4037,19.88,73054.8,5.21,1.97,1.79,0,*4B
1500951687.94,4038,19.88,73058.8,5.19,2.01,1.67,0,*4C
1500951689.15,4039,19.88,73056.8,5.21,2.05,1.79,0,*4D
1500951690.35,4040,19.88,73056.5,5.19,2.09,1.79,0,*44
1500951691.58,4041,19.88,73062.5,5.19,2.13,1.85,0,*4D
1500951692.81,4042,19.88,73058.8,5.21,2.13,1.71,0,*4E
1500951694.01,4043,19.94,73062.0,5.19,2.13,1.79,0,*4C
1500951695.22,4044,19.88,73056.3,5.21,2.21,1.83,0,*44
1500951696.42,4045,19.88,73062.0,5.19,2.13,1.75,0,*46
1500951697.64,4046,19.88,73060.5,5.21,2.17,1.79,0,*46
1500951698.85,4047,19.88,73058.0,5.19,2.17,1.79,0,*4C
1500951700.04,4048,19.88,73062.0,5.19,2.21,1.83,0,*43
1500951701.25,4049,19.88,73060.5,5.19,2.17,1.79,0,*42
1500951702.48,4050,19.94,73066.5,5.21,2.21,1.89,0,*4B
1500951703.69,4051,19.88,73060.3,5.21,2.21,1.83,0,*40
1500951704.9,4052,19.88,73062.8,5.21,2.27,1.71,0,*48
1500951706.09,4053,19.88,73064.8,5.21,2.27,1.79,0,*41
1500951707.29,4054,19.88,73060.8,5.19,2.25,1.79,0,*4F
1500951708.52,4055,19.88,73064.3,5.21,2.21,1.71,0,*49
1500951709.72,4056,19.88,73064.5,5.19,2.21,1.79,0,*49
1500951710.91,4057,19.88,73062.0,5.19,2.25,1.75,0,*40
1500951712.13,4058,19.88,73062.8,5.19,2.25,1.67,0,*4C
1500951713.3,4059,19.88,73056.5,5.19,2.27,1.75,0,*4C
1500951714.48,4060,19.88,73062.8,5.19,2.35,1.75,0,*45
1500951715.69,4061,19.88,73056.8,5.21,2.39,1.79,0,*4F
1500951716.89,4062,19.88,73058.8,5.19,2.35,1.67,0,*44
1500951718.11,4063,19.88,73058.8,5.21,2.39,1.79,0,*4D
1500951719.28,4064,19.88,73056.8,5.19,2.35,1.75,0,*41
1500951720.51,4065,19.88,73058.0,5.21,2.43,1.89,0,*49
1500951721.71,4066,19.88,73056.3,5.19,2.39,1.79,0,*43
1500951722.95,4067,19.88,73058.3,5.21,2.47,1.93,0,*44
1500951724.17,4068,19.94,73062.8,5.21,2.51,1.83,0,*4D
1500951725.37,4069,19.94,73060.5,5.19,2.47,1.79,0,*45
1500951726.61,4070,19.88,73058.0,5.21,2.51,1.89,0,*4E
1500951727.83,4071,19.88,73058.3,5.19,2.47,1.85,0,*4F
1500951729.06,4072,19.88,73058.8,5.19,2.47,1.85,0,*4C
1500951730.28,4073,19.88,73056.8,5.21,2.43,1.83,0,*44
1500951731.48,4074,19.94,73062.8,5.19,2.47,1.75,0,*45
1500951732.7,4075,19.88,73062.3,5.21,2.43,1.79,0,*47
1500951733.92,4076,19.88,73062.8,5.21,2.43,1.75,0,*48
1500951735.13,4077,19.88,73056.3,5.21,2.43,1.79,0,*45
1500951736.33,4078,19.88,73052.5,5.19,2.47,1.75,0,*49
1500951737.56,4079,19.88,73054.3,5.19,2.47,1.85,0,*47
1500951738.77,4080,19.88,73054.3,5.19,2.55,1.89,0,*4E
1500951740.0,4081,19.88,73054.0,5.21,2.55,1.89,0,*44
1500951741.24,4082,19.88,73058.0,5.21,2.51,1.89,0,*43
1500951742.48,4083,19.88,73060.8,5.21,2.51,1.89,0,*42
1500951743.7,4084,19.88,73058.5,5.19,2.59,1.85,0,*4A
1500951744.9,4085,19.88,73052.5,5.19,2.65,1.93,0,*43
1500951746.11,4086,19.88,73058.5,5.21,2.61,1.93,0,*4F
1500951747.33,4087,19.88,73052.0,5.21,2.65,1.93,0,*4A
1500951748.55,4088,19.88,73056.0,5.19,2.59,1.85,0,*46
1500951749.74,4089,19.88,73058.8,5.19,2.61,1.97,0,*4F
1500951750.96,4090,19.88,73056.8,5.19,2.73,2.01,0,*48
1500951752.17,4091,19.88,73054.8,5.19,2.59,1.89,0,*42
1500951753.41,4092,19.88,73056.3,5.21,2.55,1.93,0,*4D
1500951754.62,4093,19.88,73062.5,5.21,2.61,1.93,0,*4B
1500951755.84,4094,19.88,73054.3,5.21,2.65,2.01,0,*40
1500951757.05,4095,19.88,73056.3,5.21,2.61,1.89,0,*46
1500951758.27,4096,19.88,73052.8,5.21,2.65,2.01,0,*42
1500951759.48,4097,19.94,73062.8,5.21,2.55,1.83,0,*49
1500951760.72,4098,19.88,73060.5,5.21,2.55,1.89,0,*4C
1500951761.89,4099,19.88,73056.3,5.19,2.61,1.83,0,*4B
1500951763.1,4100,19.88,73054.0,5.21,2.61,1.89,0,*4B
1500951764.31,4101,19.88,73056.3,5.19,2.59,1.89,0,*4A
1500951765.53,4102,19.88,73054.0,5.21,2.65,1.93,0,*46
1500951766.74,4103,19.88,73056.0,5.21,2.65,1.89,0,*4C
1500951767.95,4104,19.88,73052.5,5.21,2.65,1.89,0,*4B
1500951769.17,4105,19.88,73054.0,5.21,2.65,1.93,0,*41
1500951770.38,4106,19.88,73058.0,5.21,2.61,1.93,0,*46
1500951771.59,4107,19.94,73058.8,5.21,2.61,1.89,0,*4C
1500951772.8,4108,19.88,73052.3,5.21,2.61,1.93,0,*48
1500951774.01,4109,19.88,73054.8,5.21,2.61,1.93,0,*49
1500951775.23,4110,19.88,73056.8,5.21,2.61,2.01,0,*49
1500951776.42,4111,19.88,73056.3,5.19,2.61,1.93,0,*4B
1500951777.63,4112,19.88,73050.5,5.21,2.65,1.93,0,*47
1500951778.87,4113,19.88,73054.8,5.21,2.73,2.01,0,*49
1500951780.06,4114,19.88,73052.0,5.19,2.61,1.97,0,*4A
1500951781.28,4115,19.88,73050.3,5.19,2.69,1.97,0,*43
1500951782.52,4116,19.88,73054.0,5.21,2.77,2.13,0,*4B
1500951783.76,4117,19.88,73052.0,5.21,2.73,2.05,0,*49
1500951784.95,4118,19.88,73056.8,5.19,2.61,2.01,0,*4A
1500951786.15,4119,19.88,73062.3,5.19,2.61,2.01,0,*4B
1500951787.34,4120,19.88,73056.8,5.19,2.61,2.09,0,*49
1500951788.58,4121,19.88,73056.5,5.21,2.73,2.05,0,*4C
1500951789.8,4122,19.94,73056.5,5.21,2.65,2.05,0,*48
1500951791.02,4123,19.88,73058.3,5.19,2.69,2.09,0,*42
1500951792.23,4124,19.88,73054.5,5.19,2.73,2.01,0,*46
1500951793.48,4125,19.88,73058.0,5.21,2.77,2.13,0,*4B
1500951794.72,4126,19.88,73048.5,5.21,2.73,2.17,0,*48
1500951795.94,4127,19.88,73054.5,5.19,2.69,2.13,0,*4D
1500951797.18,4128,19.88,73056.3,5.21,2.77,2.13,0,*46
1500951798.4,4129,19.88,73056.8,5.19,2.73,2.13,0,*48
1500951799.61,4130,19.88,73054.0,5.21,2.73,2.27,0,*4C
1500951800.83,4131,19.88,73048.5,5.19,2.73,2.25,0,*44
1500951802.04,4132,19.88,73052.0,5.19,2.73,2.25,0,*47
1500951803.25,4133,19.88,73052.8,5.21,2.77,2.27,0,*4B
1500951804.46,4134,19.88,73052.8,5.21,2.85,2.31,0,*46
1500951805.67,4135,19.88,73054.8,5.21,2.77,2.31,0,*4A
1500951806.89,4136,19.88,73052.8,5.19,2.81,2.25,0,*4E
1500951808.1,4137,19.88,73052.5,5.21,2.73,2.31,0,*4C
1500951809.31,4138,19.88,73056.8,5.21,2.73,2.27,0,*44
1500951810.5,4139,19.88,73056.3,5.19,2.69,2.27,0,*45
1500951811.71,4140,19.88,73052.0,5.21,2.77,2.31,0,*48
1500951812.9,4141,19.88,73052.0,5.19,2.69,2.27,0,*4A
1500951814.1,4142,19.88,73054.3,5.19,2.81,2.35,0,*4C
1500951815.34,4143,19.88,73052.8,5.21,2.85,2.39,0,*4E
1500951816.53,4144,19.88,73052.0,5.19,2.73,2.27,0,*44
1500951817.72,4145,19.88,73052.0,5.19,2.81,2.35,0,*4B
1500951818.92,4146,19.88,73052.0,5.19,2.81,2.35,0,*48
1500951820.11,4147,19.88,73052.5,5.19,2.73,2.27,0,*47
1500951821.35,4148,19.88,73054.0,5.21,2.77,2.39,0,*48
1500951822.54,4149,19.88,73052.8,5.19,2.81,2.35,0,*47
1500951823.76,4150,19.88,73052.5,5.19,2.73,2.39,0,*4E
1500951825.0,4151,19.88,73056.0,5.21,2.85,2.43,0,*40
1500951826.24,4152,19.88,73052.5,5.21,2.77,2.43,0,*4E
1500951827.49,4153,19.88,73056.0,5.21,2.77,2.43,0,*4F
1500951828.7,4154,19.88,73052.8,5.19,2.73,2.39,0,*4A
1500951829.95,4155,19.88,73052.8,5.21,2.77,2.51,0,*4A
1500951831.19,4156,19.88,73058.8,5.21,2.77,2.43,0,*4A
1500951832.41,4157,19.88,73058.8,5.19,2.81,2.39,0,*44
1500951833.63,4158,19.88,73058.0,5.19,2.85,2.39,0,*4F
1500951834.87,4159,19.88,73058.5,5.21,2.85,2.43,0,*48
1500951836.12,4160,19.88,73056.8,5.21,2.77,2.43,0,*4F
1500951837.36,4161,19.88,73058.3,5.21,2.85,2.51,0,*40
1500951838.6,4162,19.88,73058.3,5.21,2.77,2.55,0,*4A
1500951839.84,4163,19.88,73056.8,5.21,2.85,2.51,0,*42
1500951841.08,4164,19.88,73058.5,5.21,2.85,2.51,0,*45
1500951842.33,4165,19.88,73054.3,5.21,2.77,2.51,0,*49
1500951843.57,4166,19.88,73056.0,5.21,2.85,2.43,0,*44
1500951844.81,4167,19.88,73058.3,5.21,2.77,2.55,0,*4F
1500951846.02,4168,19.88,73054.5,5.19,2.73,2.47,0,*4C
1500951847.24,4169,19.88,73058.8,5.19,2.73,2.47,0,*4D
1500951848.46,4170,19.88,73058.0,5.19,2.73,2.51,0,*42
1500951849.68,4171,19.88,73058.0,5.19,2.73,2.59,0,*4B
1500951850.91,4172,19.88,73054.3,5.21,2.85,2.55,0,*46
1500951852.13,4173,19.88,73056.5,5.19,2.73,2.59,0,*49
1500951853.35,4174,19.88,73054.5,5.19,2.73,2.59,0,*4E
1500951854.57,4175,19.88,73052.3,5.19,2.73,2.51,0,*47
1500951855.79,4176,19.88,73054.8,5.21,2.73,2.61,0,*4C
1500951857.01,4177,19.88,73052.0,5.19,2.69,2.59,0,*46
1500951858.23,4178,19.88,73054.3,5.19,2.69,2.51,0,*41
1500951859.46,4179,19.88,73056.0,5.21,2.65,2.51,0,*47
1500951860.68,4180,19.88,73054.0,5.21,2.65,2.55,0,*45
1500951861.89,4181,19.88,73058.5,5.21,2.73,2.61,0,*44
1500951863.12,4182,19.88,73056.8,5.19,2.73,2.51,0,*4F
1500951864.31,4183,19.88,73058.5,5.23,2.77,2.61,0,*40
1500951865.53,4184,19.88,73054.0,5.21,2.65,2.55,0,*41
1500951866.73,4185,19.88,73058.5,5.19,2.73,2.61,0,*4B
1500951867.95,4186,19.88,73058.3,5.19,2.73,2.59,0,*43
1500951869.17,4187,19.88,73056.5,5.19,2.69,2.59,0,*49
1500951870.4,4188,19.88,73062.3,5.21,2.73,2.55,0,*4A
1500951871.64,4189,19.88,73058.5,5.21,2.73,2.55,0,*4B
1500951872.84,4190,19.88,73058.0,5.19,2.69,2.61,0,*44
1500951874.05,4191,19.88,73056.3,5.19,2.73,2.59,0,*45
1500951875.27,4192,19.88,73058.8,5.21,2.73,2.65,0,*42
1500951876.47,4193,19.88,73054.3,5.19,2.69,2.61,0,*47
1500951877.67,4194,19.88,73058.0,5.19,2.69,2.61,0,*40
1500951878.87,4195,19.88,73052.8,5.19,2.69,2.61,0,*41
1500951880.09,4196,19.88,73056.0,5.21,2.73,2.65,0,*46
1500951881.3,4197,19.88,73056.5,5.21,2.73,2.65,0,*47
1500951882.5,4198,19.88,73058.5,5.19,2.61,2.69,0,*4C
1500951883.67,4199,19.88,73056.8,5.19,2.61,2.61,0,*45
1500951884.89,4200,19.88,73052.5,5.21,2.73,2.65,0,*4A
1500951886.08,4201,19.88,73054.0,5.19,2.73,2.65,0,*40
1500951887.28,4202,19.88,73056.0,5.19,2.69,2.61,0,*4C
1500951888.5,4203,19.88,73052.0,5.21,2.73,2.65,0,*49
1500951889.7,4204,19.88,73054.8,5.19,2.61,2.59,0,*49
1500951890.9,4205,19.88,73058.5,5.21,2.65,2.65,0,*48
1500951892.11,4206,19.88,73054.3,5.19,2.73,2.73,0,*40
1500951893.31,4207,19.88,73056.0,5.19,2.69,2.61,0,*49
1500951894.52,4208,19.88,73062.8,5.19,2.69,2.61,0,*46
1500951895.73,4209,19.88,73060.3,5.21,2.73,2.65,0,*43
1500951896.93,4210,19.88,73058.5,5.21,2.65,2.65,0,*4C
1500951898.13,4211,19.88,73056.0,5.19,2.69,2.61,0,*4E
1500951899.35,4212,19.88,73058.0,5.21,2.65,2.73,0,*49
1500951900.57,4213,19.88,73060.5,5.19,2.69,2.69,0,*44
1500951901.76,4214,19.88,73056.8,5.19,2.73,2.65,0,*44
1500951902.96,4215,19.88,73060.3,5.21,2.65,2.65,0,*49
1500951904.16,4216,19.88,73058.3,5.21,2.65,2.65,0,*4A
1500951905.38,4217,19.88,73056.3,5.21,2.65,2.73,0,*4C
1500951906.58,4218,19.88,73060.8,5.23,2.65,2.73,0,*41
1500951907.81,4219,19.88,73056.0,5.21,2.73,2.73,0,*45
1500951908.99,4220,19.88,73052.5,5.19,2.61,2.61,0,*44
1500951910.23,4221,19.88,73058.0,5.21,2.73,2.73,0,*4E
1500951911.45,4222,19.88,73056.8,5.21,2.65,2.73,0,*4A
1500951912.69,4223,19.88,73056.0,5.21,2.73,2.73,0,*4C
1500951913.86,4224,19.88,73054.3,5.23,2.65,2.65,0,*49
1500951915.06,4225,19.88,73052.8,5.21,2.65,2.65,0,*4A
1500951916.26,4226,19.88,73060.5,5.21,2.65,2.65,0,*49
1500951917.47,4227,19.88,73056.5,5.19,2.59,2.61,0,*48
1500951918.66,4228,19.88,73054.3,5.21,2.65,2.65,0,*47
1500951919.89,4229,19.88,73052.3,5.21,2.55,2.61,0,*41
1500951921.08,4230,19.88,73052.8,5.21,2.61,2.65,0,*4A
1500951922.3,4231,19.88,73052.3,5.21,2.65,2.73,0,*48
1500951923.52,4232,19.88,73056.5,5.19,2.69,2.69,0,*47
1500951924.74,4233,19.88,73050.0,5.19,2.69,2.73,0,*4D
1500951925.98,4234,19.88,73048.5,5.21,2.73,2.77,0,*4E
1500951927.21,4235,19.88,73050.3,5.21,2.73,2.73,0,*4B
1500951928.46,4236,19.88,73054.3,5.21,2.77,2.73,0,*4C
1500951929.65,4237,19.88,73050.0,5.19,2.61,2.69,0,*4A
1500951930.84,4238,19.88,73054.3,5.23,2.73,2.65,0,*43
1500951932.06,4239,19.88,73054.3,5.19,2.69,2.69,0,*4C
1500951933.3,4240,19.88,73058.5,5.21,2.73,2.73,0,*49
1500951934.53,4241,19.88,73056.5,5.21,2.73,2.73,0,*48
1500951935.73,4242,19.88,73058.8,5.23,2.65,2.73,0,*4E
1500951936.97,4243,19.88,73054.8,5.21,2.73,2.73,0,*4A
1500951938.16,4244,19.88,73048.0,5.23,2.73,2.65,0,*48
1500951939.38,4245,19.88,73054.3,5.21,2.65,2.73,0,*4B
1500951940.62,4246,19.88,73056.3,5.21,2.73,2.77,0,*4B
1500951941.86,4247,19.88,73056.5,5.21,2.85,2.85,0,*4E
1500951943.1,4248,19.88,73052.0,5.21,2.77,2.77,0,*41
1500951944.34,4249,19.88,73050.0,5.21,2.77,2.85,0,*4D
1500951945.57,4250,19.88,73050.0,5.21,2.85,2.77,0,*45
1500951946.8,4251,19.88,73052.5,5.19,2.81,2.81,0,*42
1500951948.04,4252,19.88,73046.5,5.21,2.85,2.77,0,*47
1500951949.28,4253,19.88,73052.5,5.21,2.85,2.77,0,*46
1500951950.52,4254,19.88,73052.5,5.21,2.85,2.77,0,*41
1500951951.76,4255,19.88,73054.3,5.21,2.77,2.77,0,*4D
1500951953.0,4256,19.88,73058.8,5.21,2.77,2.77,0,*4E
1500951954.24,4257,19.88,73054.8,5.21,2.89,2.85,0,*43
1500951955.48,4258,19.88,73052.5,5.21,2.85,2.85,0,*40
1500951956.72,4259,19.88,73050.0,5.21,2.77,2.77,0,*41
1500951957.95,4260,19.88,73054.3,5.21,2.77,2.85,0,*46
1500951959.19,4261,19.88,73050.8,5.21,2.85,2.77,0,*47
1500951960.43,4262,19.88,73056.0,5.21,2.77,2.77,0,*49
1500951961.65,4263,19.88,73048.0,5.19,2.73,2.81,0,*4E
1500951962.9,4264,19.88,73050.5,5.21,2.85,2.77,0,*42
1500951964.12,4265,19.88,73052.3,5.19,2.81,2.85,0,*41
1500951965.36,4266,19.88,73046.3,5.21,2.85,2.77,0,*40
1500951966.59,4267,19.88,73048.0,5.21,2.85,2.77,0,*41
1500951967.83,4268,19.88,73054.0,5.21,2.85,2.85,0,*43
1500951969.07,4269,19.88,73056.0,5.21,2.85,2.77,0,*4F
1500951970.31,4270,19.88,73054.5,5.21,2.85,2.89,0,*46
1500951971.55,4271,19.88,73058.3,5.21,2.77,2.77,0,*4B
1500951972.77,4272,19.88,73054.5,5.19,2.73,2.73,0,*43
1500951974.01,4273,19.88,73050.8,5.21,2.85,2.85,0,*49
1500951975.25,4274,19.88,73050.3,5.21,2.77,2.77,0,*4E
1500951976.49,4275,19.88,73054.3,5.21,2.85,2.77,0,*42
1500951977.73,4276,19.88,73052.0,5.21,2.85,2.81,0,*48
1500951978.95,4277,19.88,73056.8,5.21,2.95,2.85,0,*4C
1500951980.17,4278,19.88,73054.8,5.19,2.85,2.81,0,*4D
1500951981.39,4279,19.88,73052.0,5.19,2.85,2.85,0,*48
1500951982.6,4280,19.88,73054.5,5.19,2.85,2.85,0,*4E
1500951983.84,4281,19.88,73058.0,5.21,2.89,2.89,0,*44
1500951985.03,4282,19.88,73054.8,5.21,2.95,2.95,0,*47
1500951986.28,4283,19.88,73054.3,5.21,2.89,2.89,0,*46
1500951987.51,4284,19.88,73058.8,5.21,2.89,2.85,0,*4D
1500951988.73,4285,19.88,73054.3,5.21,2.95,2.89,0,*4D
1500951989.95,4286,19.88,73054.3,5.21,2.95,2.89,0,*4E
1500951991.19,4287,19.88,73054.3,5.21,2.89,2.89,0,*42
1500951992.44,4288,19.88,73056.0,5.21,2.89,2.89,0,*4D
1500951993.63,4289,19.88,73058.0,5.21,2.95,2.95,0,*4C
1500951994.87,4290,19.88,73056.5,5.21,2.89,2.89,0,*44
1500951996.06,4291,19.88,73056.8,5.21,2.95,2.95,0,*45
1500951997.28,4292,19.88,73056.5,5.21,2.95,2.89,0,*4B
1500951998.44,4293,19.88,73054.3,5.23,2.95,2.95,0,*45
1500951999.64,4294,19.88,73054.3,5.23,2.89,2.95,0,*4F
1500952000.82,4295,19.88,73054.5,5.21,2.95,2.95,0,*41
1500952002.01,4296,19.88,73056.5,5.21,2.95,2.95,0,*42
1500952003.23,4297,19.88,73060.3,5.21,2.95,2.89,0,*4E
1500952004.45,4298,19.88,73058.8,5.23,2.89,2.89,0,*4E
1500952005.7,4299,19.88,73062.8,5.21,2.89,2.89,0,*4D
1500952006.94,4300,19.88,73060.5,5.21,2.89,2.89,0,*4C
1500952008.18,4301,19.88,73056.8,5.21,2.89,2.89,0,*4D
1500952009.4,4302,19.88,73054.3,5.21,2.95,2.89,0,*43
1500952010.62,4303,19.88,73054.5,5.21,2.95,2.89,0,*42
1500952011.81,4304,19.88,73060.3,5.21,2.95,2.95,0,*48
1500952013.0,4305,19.88,73060.3,5.21,2.95,2.95,0,*49
1500952014.19,4306,19.88,73052.5,5.21,2.95,2.91,0,*4E
1500952015.43,4307,19.88,73054.5,5.21,2.89,2.89,0,*4B
1500952016.62,4308,19.88,73052.0,5.21,2.95,2.95,0,*44
1500952017.81,4309,19.88,73058.3,5.21,2.95,2.95,0,*45
1500952019.03,4310,19.88,73058.8,5.21,2.95,2.89,0,*40
1500952020.22,4311,19.88,73058.0,5.21,2.95,2.95,0,*4C
1500952021.41,4312,19.88,73056.5,5.21,2.99,2.95,0,*43
1500952022.58,4313,19.88,73056.3,5.23,2.95,2.95,0,*4C
1500952023.77,4314,19.88,73062.8,5.23,2.95,2.89,0,*46
1500952024.94,4315,19.88,73060.0,5.23,2.95,2.95,0,*4A
1500952026.14,4316,19.88,73056.8,5.23,2.99,2.89,0,*48
1500952027.3,4317,19.88,73062.3,5.23,2.99,2.95,0,*44
1500952028.5,4318,19.88,73056.3,5.23,2.99,3.03,0,*45
1500952029.69,4319,19.88,73054.8,5.21,2.95,2.95,0,*44
1500952030.86,4320,19.88,73054.5,5.23,2.99,2.95,0,*40
1500952032.05,4321,19.88,73060.0,5.23,3.03,2.99,0,*4F
1500952033.25,4322,19.88,73060.5,5.23,3.03,2.99,0,*4C
1500952034.44,4323,19.88,73058.8,5.23,3.03,2.95,0,*41
1500952035.67,4324,19.88,73060.8,5.23,3.03,3.03,0,*48
1500952036.89,4325,19.88,73060.8,5.23,3.03,3.03,0,*49
1500952038.06,4326,19.88,73056.5,5.23,2.99,2.99,0,*4A
1500952039.28,4327,19.88,73056.5,5.23,3.03,3.03,0,*4B
1500952040.51,4328,19.88,73060.8,5.23,3.03,3.03,0,*44
1500952041.73,4329,19.88,73060.0,5.23,3.03,3.03,0,*45
1500952042.95,4330,19.88,73056.5,5.23,3.03,3.03,0,*4D
1500952044.15,4331,19.88,73060.3,5.23,3.03,2.99,0,*4E
1500952045.34,4332,19.88,73060.8,5.23,2.99,3.03,0,*4D
1500952046.56,4333,19.88,73056.5,5.21,3.03,2.99,0,*4E
1500952047.81,4334,19.88,73060.0,5.21,3.03,3.03,0,*4B
1500952049.03,4335,19.88,73064.3,5.21,3.03,2.99,0,*48
1500952050.25,4336,19.88,73062.5,5.21,2.99,3.03,0,*4B
1500952051.47,4337,19.88,73064.0,5.23,3.03,3.03,0,*4A
1500952052.69,4338,19.88,73064.3,5.23,3.03,3.03,0,*45
1500952053.92,4339,19.88,73060.0,5.23,3.15,3.15,0,*44
1500952055.15,4340,19.88,73062.5,5.23,3.15,3.15,0,*4A
1500952056.38,4341,19.88,73064.3,5.25,3.15,3.15,0,*4D
1500952057.61,4342,19.88,73064.3,5.23,3.11,3.11,0,*48
1500952058.84,4343,19.88,73066.5,5.25,3.15,3.15,0,*4F
1500952060.06,4344,19.88,73064.3,5.23,3.11,3.11,0,*4E
1500952061.28,4345,19.88,73066.3,5.23,3.11,3.03,0,*4C
1500952062.51,4346,19.88,73064.8,5.23,3.15,3.03,0,*4B
1500952063.74,4347,19.88,73066.3,5.23,3.15,3.11,0,*49
1500952064.96,4348,19.88,73062.8,5.23,3.11,3.11,0,*42
1500952066.19,4349,19.88,73068.8,5.23,3.15,3.15,0,*43
1500952067.41,4350,19.88,73074.5,5.23,3.15,3.15,0,*4B
1500952068.61,4351,19.88,73066.8,5.25,3.59,3.49,0,*4D
1500952069.83,4352,19.88,73058.3,5.23,3.67,3.67,0,*49
1500952071.05,4353,19.88,73062.8,5.25,3.49,3.53,0,*45
1500952072.27,4354,19.88,73064.0,5.23,3.45,3.45,0,*4F
1500952073.47,4355,19.88,73064.8,5.25,3.37,3.25,0,*4B
1500952074.7,4356,19.88,73058.8,5.25,3.15,3.15,0,*4B
1500952075.92,4357,19.81,73060.3,5.25,3.19,3.19,0,*4A
1500952077.14,4358,19.88,73060.8,5.25,3.37,3.37,0,*45
1500952078.36,4359,19.88,73060.5,5.25,3.37,3.37,0,*44
1500952079.59,4360,19.88,73060.0,5.25,3.41,3.41,0,*4E
1500952080.8,4361,19.88,73062.8,5.29,3.45,3.53,0,*44
1500952082.02,4362,19.88,73062.8,5.29,3.53,3.53,0,*40
1500952083.24,4363,19.88,73062.8,5.29,3.33,3.41,0,*44
1500952084.43,4364,19.88,73054.8,5.29,3.33,3.29,0,*4D
1500952085.63,4365,19.88,73058.0,5.31,3.29,3.29,0,*4E
1500952086.85,4366,19.88,73058.0,5.29,3.45,3.33,0,*45
1500952088.11,4367,19.88,73054.3,5.31,3.41,3.41,0,*4C
1500952089.3,4368,19.88,73056.5,5.29,3.29,3.19,0,*49
1500952090.54,4369,19.88,73054.5,5.31,3.19,3.19,0,*42
1500952091.75,4370,19.88,73058.3,5.29,3.19,3.19,0,*43
1500952092.99,4371,19.88,73060.5,5.31,3.19,3.11,0,*43
1500952094.23,4372,19.88,73060.8,5.31,3.19,3.11,0,*40
1500952095.47,4373,19.88,73056.5,5.31,3.19,3.11,0,*41
1500952096.69,4374,19.88,73050.8,5.29,3.23,3.23,0,*47
1500952097.88,4375,19.88,73056.0,5.29,3.33,3.29,0,*4D
1500952099.1,4376,19.88,73054.3,5.29,3.33,3.23,0,*44
1500952100.31,4377,19.88,73058.5,5.31,3.29,3.23,0,*47
1500952101.52,4378,19.88,73062.8,5.29,3.19,3.19,0,*4B
1500952102.74,4379,19.88,73062.8,5.29,3.19,3.19,0,*4A
1500952103.95,4380,19.88,73062.3,5.29,3.19,3.19,0,*4C
1500952105.16,4381,19.81,73056.0,5.29,3.19,3.19,0,*4D
1500952106.4,4382,19.81,73056.3,5.31,3.19,3.11,0,*4F
1500952107.64,4383,19.88,73058.0,5.31,3.19,3.07,0,*49
1500952108.87,4384,19.88,73066.5,5.29,3.11,3.11,0,*48
1500952110.11,4385,19.81,73062.3,5.31,3.11,3.11,0,*40
1500952111.36,4386,19.88,73062.8,5.31,3.11,3.11,0,*43
1500952112.58,4387,19.81,73056.8,5.29,3.19,3.11,0,*43
1500952113.8,4388,19.88,73062.0,5.29,3.11,3.07,0,*43
1500952115.05,4389,19.88,73060.0,5.31,3.11,3.07,0,*4B
1500952116.3,4390,19.81,73060.8,5.31,3.11,3.11,0,*44
1500952117.52,4391,19.88,73060.8,5.29,3.07,3.07,0,*4C
1500952118.75,4392,19.81,73060.3,5.29,3.07,3.03,0,*4B
1500952120.0,4393,19.81,73058.3,5.31,3.03,3.03,0,*47
1500952121.25,4394,19.81,73056.0,5.31,3.03,3.03,0,*40
1500952122.45,4395,19.81,73056.3,5.31,2.95,2.95,0,*41
1500952123.67,4396,19.81,73056.5,5.29,3.07,3.07,0,*4B
1500952124.89,4397,19.81,73056.8,5.29,3.11,3.11,0,*4A
1500952126.12,4398,19.81,73062.3,5.29,3.11,3.11,0,*45
1500952127.37,4399,19.88,73058.8,5.31,3.11,3.07,0,*4A
1500952128.59,4400,19.81,73056.5,5.29,3.11,3.11,0,*43
1500952129.84,4401,19.81,73056.5,5.31,3.11,3.07,0,*4C
1500952131.06,4402,19.81,73056.0,5.29,3.11,3.07,0,*46
1500952132.28,4403,19.81,73054.0,5.29,3.11,3.07,0,*47
1500952133.53,4404,19.81,73054.0,5.31,3.11,3.07,0,*49
1500952134.73,4405,19.81,73054.5,5.29,2.91,3.03,0,*4C
1500952135.93,4406,19.88,73058.0,5.29,3.03,2.95,0,*4B
1500952137.15,4407,19.88,73056.0,5.29,3.03,3.07,0,*40
1500952138.37,4408,19.81,73054.0,5.29,3.11,3.11,0,*4B
1500952139.62,4409,19.81,73054.5,5.31,3.11,3.11,0,*43
1500952140.84,4410,19.81,73060.0,5.29,3.11,3.11,0,*42